Hourly Weather Roundup
Issued by NWS Central Illinois

Home | Current Version | Previous Version | Text Only | Print | Product List | Glossary On
Versions: 1 2 3 4 5 6 7 8 9 10 11 12 13 14 15 16 17 18 19 20 21 22 23 24 25 26 27 28 29 30 31 32 33 34 35 36 37 38 39 40 41 42 43 44 45 46 47 48 49 50
000
NZUS43 KILX 241410
HWRILX

Area Weather Roundup
National Weather Service Lincoln IL
900 AM CDT MON JUL 24 2017

NOTE:  "FAIR" indicates few or no clouds below 12,000 feet, with
       no sigificant weather and/or obstructions to visibility.


CITY           SKY/WX    TMP DP  RH WIND       PRES   REMARKS
Bloomington    CLOUDY    69  65  86 NE13      30.02R
Champaign      CLOUDY    72  66  81 NE9       30.00R
Danville       CLOUDY    72  67  83 NE10      29.97R
Decatur        PTSUNNY   73  67  81 NE9       29.99R
Effingham      SUNNY     76  70  81 N5        29.98R
Flora          SUNNY     79  70  74 N7        29.96R HX  81
Galesburg      CLOUDY    70  66  88 NE8       30.02R
Jacksonville   SUNNY     73  65  75 CALM      29.99R
Lacon          CLOUDY    67  64  89 NE6       30.02R
Lawrenceville  SUNNY     78  71  79 N6        29.95R HX  80
Litchfield     SUNNY     73  67  81 N6        29.98R
$$


CITY           SKY/WX    TMP DP  RH WIND       PRES   REMARKS
Lincoln        CLOUDY    72  68  89 NE8       29.99R
Macomb         PTSUNNY   67  65  92 NE9       30.03R
Mattoon        MOSUNNY   74  70  87 NE10      29.97S
Mt Carmel AP   SUNNY     78  70  76 NE6       29.94R HX  80
Olney-Noble AP SUNNY     76  73  91 N6        29.96R
Paris AP       MOSUNNY   72  68  89 NE7       29.99S
Peoria         CLOUDY    71  66  84 E10       30.01R
Pontiac        CLOUDY    69  67  91 NE9       30.02R
Rantoul        CLOUDY    72  67  84 NE8       29.99S
Robinson       SUNNY     74  69  83 NE6       29.96R
Springfield    SUNNY     75  68  78 NE3       29.99R
Taylorville    MOSUNNY   74  68  82 CALM      29.98S
$$

...REGIONAL REPORTS...


CITY           SKY/WX    TMP DP  RH WIND       PRES   REMARKS
Chicago O`Hare PTSUNNY   69  60  73 N14       30.01R
Kankakee       CLOUDY    71  64  76 NE9       30.01R
Moline         CLOUDY    70  63  78 E9        30.02R
Mount Sterling SUNNY     71  65  80 CALM      30.00R
Mount Vernon   SUNNY     79  69  71 NE6       29.95R HX  81
Pittsfield     SUNNY     73  65  78 N3        30.02R
Quincy         SUNNY     74  64  71 NE6       30.01R
Rockford       PTSUNNY   69  59  70 E10       30.05R
$$


CITY           SKY/WX    TMP DP  RH WIND       PRES   REMARKS
Burlington     MOSUNNY   71  66  84 NE8       30.01R
Cedar Rapids   PTSUNNY   67  65  93 NE9       30.04R
Des Moines     MOSUNNY   71  61  70 NE3       30.04R
Kirksville     SUNNY     72  64  76 VRB5      30.04R
Ottumwa        SUNNY     70  63  78 E5        30.02S
St Louis       SUNNY     79  67  66 N6        29.98R HX  81
$$


CITY           SKY/WX    TMP DP  RH WIND       PRES   REMARKS
Terre Haute    SUNNY     74  67  78 N7        29.96S
Evansville     SUNNY     82  71  69 CALM      29.94R HX  86
Indianapolis   MOSUNNY   74  66  76 N7        29.95R
Lafayette      PTSUNNY   73  66  78 N10       29.97R
Madison        CLOUDY    64  57  78 NE12      30.06R
Milwaukee      PTSUNNY   68  56  65 N14G21    30.03R
$$






USA.gov is the U.S. government's official web portal to all federal, state and local government web resources and services.